Theta_e
309 308 307 307 306 304 302 300 300 302 304 305 306 306 306 306 307 309 316 312 314 313 326 326 327 329 329 329 330 330 330 331 330 329 330 326 325 326 326 327 327 325 323 327 327
309 309 308 308 307 306 306 304 302 301 301 303 304 306 306 306 307 313 311 312 316 315 320 329 329 328 329 330 331 331 331 331 330 329 329 326 323 323 327 326 326 327 325 328 328
310 309 309 308 308 308 307 307 306 304 302 301 302 305 306 306 318 315 320 319 314 317 317 321 328 329 330 331 331 330 330 328 328 329 329 328 323 323 324 326 326 325 324 324 325
308 310 310 309 308 308 308 308 308 307 306 303 300 301 305 307 312 319 316 316 317 317 319 320 321 327 331 332 330 330 329 329 328 328 328 326 324 323 323 325 326 326 324 322 322
306 307 308 308 309 309 309 308 308 307 307 305 303 299 306 314 313 313 315 319 316 318 319 318 318 321 325 331 330 330 330 329 329 328 325 325 325 325 323 326 326 324 323 323 321
305 305 305 306 308 309 309 308 308 308 307 307 306 304 314 312 309 311 313 315 319 317 318 318 318 319 322 327 329 329 328 329 329 328 326 326 326 325 325 326 326 323 322 321 321
304 305 304 304 306 308 309 309 309 308 308 308 310 311 312 311 312 314 314 315 320 319 317 317 319 319 321 321 323 325 325 326 328 327 325 326 326 326 326 325 325 323 322 321 322
302 302 305 305 304 305 305 306 306 307 308 308 312 311 311 309 311 311 313 313 314 322 319 319 318 317 319 320 323 323 326 328 326 326 326 325 327 326 326 325 325 325 325 324 323
306 302 301 305 306 306 305 305 305 307 308 309 312 312 309 308 310 311 313 313 314 318 322 323 320 318 319 320 321 323 325 326 327 326 326 326 327 326 326 325 325 326 325 324 322
306 306 304 299 303 305 304 305 305 308 311 312 311 311 310 313 311 313 313 315 315 317 317 317 317 318 318 322 323 323 325 327 328 327 326 326 327 327 326 325 325 324 325 325 325
306 306 305 303 298 304 304 306 312 315 313 315 313 310 314 315 317 315 316 315 316 315 320 319 315 319 320 321 323 323 325 327 328 327 326 329 329 327 327 326 324 324 325 327 325
305 305 306 305 298 301 304 305 310 310 313 313 313 311 311 313 314 318 315 317 315 315 314 316 316 317 321 322 324 325 324 325 325 326 327 328 328 328 328 327 325 324 324 324 325
304 305 305 305 301 300 305 305 307 307 313 313 314 315 315 315 314 316 316 316 315 314 314 314 317 319 322 321 323 325 325 324 325 327 327 327 327 329 328 326 325 325 324 325 325
304 304 305 305 303 305 310 310 310 310 312 309 312 313 317 317 319 316 317 316 316 315 314 314 316 319 322 323 323 324 325 325 326 328 328 327 327 327 327 325 325 324 324 325 324
304 304 305 305 303 303 308 308 310 311 315 310 311 314 314 319 319 318 316 316 316 316 315 315 315 317 319 323 323 324 325 325 327 327 326 325 325 325 326 327 325 322 325 325 324
304 304 305 305 306 302 306 309 309 311 312 311 315 315 315 320 320 319 317 316 316 316 316 316 316 316 317 319 324 325 325 326 327 324 326 327 326 326 327 327 325 323 324 327 325
304 304 305 306 306 304 305 309 314 313 309 312 316 315 316 318 321 321 317 316 316 317 318 317 316 317 318 319 320 325 323 326 326 323 326 326 327 326 326 326 323 325 326 326 326
304 304 305 306 305 305 306 310 313 309 309 310 311 313 317 318 319 321 320 316 315 316 317 319 318 316 317 318 321 322 323 327 329 329 326 326 327 327 327 324 323 327 327 327 325
304 304 306 306 306 306 307 311 309 309 309 310 310 312 315 318 319 320 320 317 316 316 317 318 319 318 318 318 320 321 325 323 325 326 326 326 328 328 324 323 322 330 329 326 325
304 305 306 306 306 306 307 310 308 309 309 309 310 310 311 313 315 319 319 320 318 317 318 318 319 319 319 318 319 322 325 325 322 325 327 328 329 330 324 323 324 332 329 328 326
304 307 306 306 306 306 308 307 308 307 307 308 309 310 311 312 314 318 321 321 320 318 317 319 322 323 320 319 319 322 326 323 320 321 325 327 329 325 324 326 330 332 330 328 326
305 306 307 306 308 305 309 306 308 308 309 308 308 309 310 314 317 318 320 322 320 319 318 318 322 323 325 321 321 324 325 322 323 326 325 328 328 328 330 330 330 333 331 326 325
305 306 306 306 308 307 306 307 307 307 307 308 309 308 309 312 318 318 320 320 320 321 319 319 320 329 323 324 322 326 325 325 323 325 328 330 329 327 328 332 333 332 331 328 324
304 305 307 307 307 307 307 306 305 305 306 308 309 310 309 313 314 317 318 319 316 322 329 322 320 320 330 326 325 327 326 324 325 328 329 330 327 329 327 329 332 331 328 327 325
304 305 307 307 306 306 306 306 306 305 305 305 309 310 310 313 315 317 316 315 316 322 317 322 320 326 323 326 327 327 327 326 325 326 327 327 328 328 326 325 331 330 328 327 326
304 305 305 304 306 305 306 306 306 306 305 306 308 310 311 312 313 315 313 312 314 314 313 319 323 323 328 326 326 327 327 326 325 325 326 326 327 326 326 325 331 330 329 328 327
302 304 305 305 305 306 307 307 308 307 307 307 307 308 310 311 312 312 311 311 311 313 313 319 329 324 324 326 327 328 327 326 326 325 325 325 325 328 328 327 331 330 329 328 327
Wind_Speed
16 16 16 16 17 18 19 19 19 19 19 19 19 18 18 20 22 19 12 20 18 26 13 14 17 19 19 8 14 12 6 13 17 14 17 10 6 6 6 1 2 7 8 11 28
18 18 21 21 21 21 21 21 21 20 20 20 21 19 18 20 23 19 30 28 22 20 22 18 15 16 10 10 11 13 9 22 15 17 17 9 8 8 7 9 8 3 9 23 27
21 21 22 22 23 24 23 23 23 23 21 21 21 20 16 17 5 9 3 16 35 29 27 23 20 14 15 16 20 18 18 18 16 21 21 14 8 8 11 11 8 6 10 12 10
21 21 22 23 24 24 24 25 25 24 24 22 20 19 15 8 6 5 7 12 10 29 25 21 15 13 18 20 20 18 21 21 22 21 20 8 6 9 14 14 7 5 14 9 9
21 21 21 22 22 25 25 24 24 23 23 22 20 18 8 7 12 19 20 6 4 20 26 15 15 17 20 20 16 21 23 22 22 21 9 5 9 14 20 9 7 7 10 11 10
19 20 21 23 23 23 24 25 25 24 23 21 19 16 4 16 24 30 28 21 12 20 21 19 11 18 10 17 20 19 18 21 23 18 7 9 14 18 16 7 8 8 8 9 11
19 20 22 22 22 22 24 26 26 27 25 22 17 10 9 20 16 17 18 15 22 23 13 25 26 13 11 13 15 16 22 23 19 14 11 14 17 17 10 8 8 9 10 10 10
20 21 21 22 22 22 24 26 27 27 26 21 14 8 10 15 19 31 34 30 20 28 25 25 25 16 12 9 15 18 18 19 10 12 20 10 19 14 10 9 10 11 10 9 11
23 23 23 22 21 22 24 27 30 29 25 16 8 9 9 14 23 42 35 22 23 25 27 22 14 11 10 15 13 11 13 14 15 18 22 12 20 18 11 9 9 10 9 11 11
23 25 24 23 23 24 25 30 31 24 16 9 14 5 10 11 20 28 35 28 13 9 14 13 6 11 12 9 18 13 10 13 18 24 18 18 16 9 12 12 12 10 9 9 9
23 24 25 25 22 23 26 17 3 3 9 11 15 13 8 25 8 18 19 22 18 10 12 9 7 18 21 20 13 14 14 19 23 21 22 5 20 10 11 8 8 9 8 8 11
24 23 23 23 23 22 20 5 12 9 10 21 25 26 33 28 11 15 26 17 18 21 14 12 24 19 18 15 16 17 19 24 23 21 10 17 18 9 8 6 9 11 10 6 8
24 22 21 22 22 22 12 17 23 26 6 13 23 27 20 19 22 20 20 19 21 21 22 23 8 19 18 18 18 20 20 21 20 22 18 5 7 4 4 8 9 12 8 14 19
22 21 19 19 12 13 16 21 27 17 5 9 13 14 19 13 14 30 26 23 8 25 22 19 18 18 23 22 22 21 20 23 23 17 8 2 5 4 6 9 9 7 10 14 16
22 20 16 13 15 10 15 28 24 8 5 8 15 16 19 26 13 20 38 21 22 19 23 21 25 25 23 24 25 22 18 21 22 16 5 3 3 5 6 9 17 8 12 15 16
23 20 15 10 15 18 16 25 16 3 10 8 8 17 18 26 18 3 29 24 15 19 23 23 13 21 29 24 26 24 16 18 13 5 2 6 7 6 7 8 5 7 10 14 11
23 18 15 11 7 14 17 9 3 7 10 6 1 19 21 16 24 18 24 26 21 20 24 21 28 26 23 23 23 19 12 7 3 1 6 5 4 9 10 9 7 8 9 11 13
22 16 14 15 17 12 4 3 10 11 21 24 22 19 11 17 23 31 15 25 25 23 10 15 15 30 24 28 23 16 14 6 8 4 7 7 9 17 12 10 10 11 10 12 12
20 16 15 18 16 14 1 8 7 12 17 19 28 18 8 11 10 24 27 29 30 26 19 18 18 14 28 22 21 21 10 12 5 2 2 5 8 5 7 9 9 13 13 11 10
10 12 16 14 17 10 3 9 14 16 17 19 20 15 23 23 17 11 21 27 27 30 17 11 7 22 21 20 23 23 7 6 2 7 6 6 6 4 9 10 7 13 12 10 10
5 3 7 9 17 2 6 9 14 17 19 20 20 22 21 22 19 17 14 15 30 27 30 20 6 10 21 22 25 12 5 4 7 6 5 3 7 8 10 9 15 15 14 15 14
4 2 5 17 2 3 2 6 5 18 20 20 20 18 19 22 16 14 12 13 18 22 31 28 7 12 17 17 22 9 8 8 8 6 5 5 6 6 11 11 11 15 13 10 13
3 3 6 8 3 2 9 16 17 19 18 17 20 19 12 14 8 14 13 21 18 15 29 24 18 3 13 9 17 16 14 8 7 6 9 5 5 5 9 11 16 14 14 13 10
3 3 2 2 4 6 10 11 13 12 14 9 14 19 8 16 16 15 28 14 31 18 19 26 11 20 9 10 16 13 20 16 8 6 6 9 7 4 8 11 14 14 14 15 13
2 3 2 3 4 6 6 9 16 13 14 14 7 14 9 8 19 17 20 29 22 12 19 15 25 12 24 22 10 24 22 20 16 8 12 7 6 14 12 11 17 16 15 15 14
2 3 4 8 8 9 7 8 15 17 13 10 9 17 16 13 9 19 16 12 13 12 19 12 18 20 10 20 18 23 23 20 19 10 8 10 9 9 10 10 13 20 19 18 16
5 7 3 4 7 6 6 9 13 15 11 13 12 9 11 8 5 15 16 18 22 21 17 7 4 15 16 10 11 13 26 24 21 10 13 14 6 7 7 12 20 19 19 20 18
Wind_Direction
333 329 330 333 335 333 328 323 320 316 312 312 312 307 314 315 307 297 237 239 242 235 218 194 202 225 232 215 225 244 250 261 264 270 276 311 350 317 329 164 214 192 165 157 158
330 330 332 333 332 333 332 327 321 317 315 309 302 308 315 317 312 261 266 256 228 238 215 200 202 212 227 235 222 229 233 248 258 269 277 298 327 325 350 319 293 228 92 140 156
321 321 326 329 330 327 324 326 326 323 315 307 303 303 309 317 288 243 276 256 231 234 228 222 225 204 228 238 234 237 240 251 254 259 272 285 317 310 308 292 270 155 157 156 160
316 314 313 314 317 319 322 322 322 320 315 309 307 300 302 297 239 166 67 354 236 221 213 224 239 227 227 235 238 250 245 250 255 258 256 255 290 291 280 266 259 191 153 158 167
312 308 306 304 307 309 312 315 316 316 315 318 315 308 314 226 235 230 295 319 252 209 212 219 228 235 236 231 241 243 248 253 260 265 247 262 267 264 268 274 296 137 138 171 176
318 314 313 306 302 302 302 303 305 306 308 311 315 317 223 243 253 253 260 265 230 196 215 215 226 227 267 233 243 249 254 252 254 263 247 257 262 260 253 248 239 149 159 169 175
317 319 317 311 302 298 299 299 300 299 301 306 312 296 251 233 250 258 254 251 226 206 212 223 230 246 235 264 251 259 264 273 266 265 259 243 254 254 251 225 229 200 206 204 196
321 313 319 317 309 301 300 297 296 297 295 298 300 257 254 258 263 260 249 262 261 216 207 225 224 241 252 276 283 276 260 258 253 265 259 230 258 239 236 218 238 227 225 188 200
327 327 314 316 314 310 305 301 290 285 290 289 274 203 262 265 231 227 236 230 248 233 203 224 224 215 234 238 266 258 260 262 268 246 259 226 247 244 205 221 252 227 228 205 209
323 325 325 312 313 312 310 306 289 287 281 238 240 213 263 234 227 228 227 226 218 250 207 218 218 231 240 217 229 235 257 253 256 259 256 258 261 199 202 205 227 246 227 223 167
323 316 321 323 309 315 319 332 183 162 226 204 192 210 276 216 269 224 207 205 229 223 206 199 212 229 223 231 228 242 248 249 254 257 250 273 271 217 209 207 226 241 242 219 161
319 319 311 315 313 308 308 265 275 346 286 233 244 231 252 276 298 239 200 190 205 214 207 222 223 221 232 232 242 228 249 261 274 278 265 214 245 236 206 207 218 229 244 198 118
319 312 311 310 316 303 245 241 288 292 265 256 232 236 231 244 249 250 199 199 195 210 204 216 223 216 228 230 239 239 232 250 258 275 285 289 320 296 235 229 258 245 213 141 150
319 307 307 307 306 308 283 322 322 247 280 259 211 237 217 215 256 225 245 200 190 207 211 234 219 221 214 228 226 239 223 236 249 258 253 101 276 302 301 289 280 255 133 148 156
316 312 298 283 295 319 302 326 331 206 278 214 210 186 190 189 140 208 217 207 204 199 200 210 208 214 227 216 229 241 224 231 240 249 225 275 292 253 277 283 286 171 155 161 162
313 304 296 278 254 265 316 320 305 218 245 272 150 180 168 202 217 156 190 221 203 212 221 223 231 213 230 232 225 231 232 240 243 196 262 212 182 263 234 239 198 169 162 163 146
316 298 281 251 259 290 319 321 222 227 287 248 335 169 186 187 203 234 187 204 201 199 216 220 223 236 237 230 237 222 218 243 315 344 228 216 278 236 260 231 163 130 127 138 135
321 301 276 244 252 272 343 258 225 244 253 291 334 335 225 172 204 212 205 207 218 206 176 208 226 215 219 228 231 224 198 176 200 168 250 243 238 249 221 165 119 129 127 125 131
319 302 260 248 239 237 107 224 231 246 282 301 332 312 313 243 179 207 217 206 211 209 207 195 228 183 219 223 220 240 203 182 139 212 248 238 276 224 158 126 127 129 124 130 134
306 298 263 242 216 207 212 242 237 248 280 306 307 292 316 318 334 303 208 220 213 211 213 249 228 230 211 219 241 211 173 137 76 194 263 291 306 225 151 172 160 135 135 137 140
295 279 268 199 183 181 236 251 276 275 290 299 313 313 310 312 310 317 265 244 206 204 209 215 219 234 215 208 215 217 173 123 131 151 179 233 267 207 175 161 145 150 150 150 153
324 289 340 165 161 199 246 245 277 298 297 300 290 286 292 353 315 307 259 254 210 196 202 209 203 239 232 213 202 189 159 150 173 226 225 178 272 140 141 152 134 146 149 147 150
280 256 223 167 254 204 266 271 269 272 284 302 297 296 335 306 307 284 309 323 358 309 199 196 224 252 242 273 196 183 179 147 140 138 212 169 248 195 138 126 135 139 150 147 142
300 304 94 183 188 222 276 287 289 279 287 319 316 297 280 284 281 294 314 325 326 330 311 177 196 215 222 208 188 172 182 188 153 177 182 215 237 195 147 143 147 151 152 152 155
261 275 190 290 315 283 275 283 285 289 282 281 319 318 259 287 303 294 318 324 324 339 346 190 203 195 226 249 203 184 181 186 202 172 186 220 229 180 179 175 163 159 151 155 158
281 324 348 301 299 311 299 266 279 292 268 285 264 257 269 257 283 298 314 320 299 327 347 323 207 200 223 230 243 190 187 190 208 186 181 175 228 187 215 193 138 158 162 165 167
300 310 290 281 290 296 278 296 288 290 289 261 275 306 316 298 273 270 269 273 267 284 301 284 298 183 214 235 232 235 189 193 206 204 179 199 179 255 174 192 155 159 165 172 176